STARLINK-2019 (47641 NORAD) Tracking and Keplerian Element Data
This shows tracking and keplerian element data for the satellite.
Feedback or suggestion? Click here.
Element | Value |
Catalog | 47641 |
Name | STARLINK-2019 |
Epoch Orbit | 178 |
Epoch Day | 59.91667824 |
Epoch Year | 2021 |
RAAN | 38.0668 |
Inclination | 53.0498 |
Eccentricity | 0.0001531 |
Argument of Perigee | 109.4762 |
Mean Anonmoly | 35.7131 |
Mean Motion | 15.86929783 |
Decay Rate | 0.00109796 |
L1 | 1 47641U 21012X 21059.91667824 .00109796 00000-0 41469-3 0 9997 |
L2 | 2 47641 53.0498 38.0668 0001531 109.4762 35.7131 15.86929783 1787 |
Live tracking and technical data element details for STARLINK-2019 (NORAD 47641). STARLINK-2019 can be tracked NOW for your location showing map with azimuth and elevation plus other details from your city location.
Track the satellite on the map from your city or location and see movement details for azimuth, elevation, latitude, longitude, range, height, and movement on the map or in text.
IsCatalogInMostPopularTable: catalog: 47641, numindb: 4
Update: records affected: 1
GetName: 47641 STARLINK-2019
Hit Count: updated at: Mon, 01 Mar 2021 16:34:43 GMT